GOES 3

Satellite information

Favourite Embed

Satellite Type and Status

PAYLOADIN ORBIT

Key statistics

Satellite GOES 3 at a glance.

Uptime

17250

Days in orbit

Revolutions

≈ 1.0

Per day

Orbit

OTHER

Other

Inclination

7.5

Latest

Satellite identification and parameters

Extended collection of information and parameters for GOES 3.

Object identification

Identified? True

Debris? False

Object name: GOES 3

International designator: 1978-062A

Object number (NORAD): 10953

Object ID (CCSDS): 10953

Country: UNITED STATES OF AMERICA (US)

Current information (Y/N): Y

RCS size: LARGE

Orbital parameters

Period: 1449.243 minutes

Inclination: 7.5466 deg

SMA: 42421.65 km

Apoapsis: 36053.475 km

Periapsis: 36033.556 km

RAAN: 301.2894 deg

Eccentricy: 0.00023477

Argument of periapsis: 263.1681 deg

Mean anomaly: 122.8914 deg

Mean motion: 0.99362251 rev/day

Mean motion (dot): -0.00000008 rev/day2

B* drag term: 0.0 1/REarth

Two-line elements (TLE)

Creation date: Sept. 7, 2025, 3:09 a.m.

Reference frame: TEME

Reference center: EARTH

Epoch: Sept. 6, 2025, 9:10 p.m. UTC

TLE line 0: 0 GOES 3

TLE line 1: 1 10953U 78062A 25249.88221902 -.00000008 00000-0 00000-0 0 9994

TLE line 2: 2 10953 7.5466 301.2894 0002348 263.1681 122.8914 0.99362251125720

Live tracking on map

Real-time ground track for satellite GOES 3.

In-orbit conjunctions

There are no conjunctions computed for GOES 3, at the moment. Check back to stay up to date, as we update our databases every day.

Go to all conjunctions

Associated space launch

Geostationary meteorological satellite

GOES 3 was lifted into orbit during the mission ‘Delta 2914 | GOES 3’, on board a Delta 2914 space rocket.

The launch took place on June 16, 1978, 10:49 a.m. from Space Launch Complex 17B.

For more information about the launch, click the button.

Launch to space Delta 2914 | GOES 3
Delta 2914 | GOES 3

Agency: N/A

Status: Launch Successful

Launch date: June 16, 1978, 10:49 a.m. UTC

Rocket: Delta 2914

Launch pad: Space Launch Complex 17B

Location: Cape Canaveral SFS, FL, USA

...

Latest news about this satellite

There are no fresh news available about this satellite. Check back as we update our databases every day.


Newsletter sign-up

Weekly statistics, charts and insights to help you stay on top of the space industry.